QPF
0.00 0.00 0.00 0.00 0.00 0.00 0.00 0.00 0.00 0.00 0.00 0.00 0.00 0.00 0.00 0.00 0.00 0.00 0.00 0.00 0.00 0.00
0.00 0.00 0.00 0.00 0.00 0.00 0.00 0.00 0.00 0.00 0.00 0.00 0.00 0.00 0.00 0.00 0.00 0.00 0.00 0.00 0.00 0.00
0.00 0.00 0.00 0.00 0.00 0.00 0.00 0.00 0.00 0.00 0.00 0.00 0.00 0.00 0.00 0.00 0.00 0.00 0.00 0.00 0.00 0.00
0.00 0.00 0.00 0.00 0.00 0.00 0.00 0.00 0.00 0.00 0.00 0.00 0.00 0.00 0.00 0.00 0.00 0.00 0.00 0.00 0.00 0.00
0.00 0.00 0.00 0.00 0.00 0.00 0.00 0.00 0.00 0.00 0.00 0.00 0.00 0.00 0.00 0.00 0.00 0.00 0.00 0.00 0.00 0.00
0.00 0.00 0.00 0.00 0.00 0.00 0.00 0.00 0.00 0.00 0.00 0.00 0.00 0.00 0.00 0.00 0.00 0.00 0.00 0.00 0.00 0.00
0.00 0.00 0.00 0.00 0.00 0.00 0.00 0.00 0.00 0.00 0.00 0.00 0.00 0.00 0.00 0.00 0.00 0.00 0.00 0.00 0.00 0.00
0.00 0.00 0.00 0.00 0.00 0.00 0.00 0.00 0.00 0.00 0.00 0.00 0.00 0.00 0.00 0.00 0.00 0.00 0.00 0.00 0.00 0.00
0.00 0.00 0.00 0.00 0.00 0.00 0.00 0.00 0.00 0.00 0.00 0.00 0.00 0.00 0.00 0.00 0.00 0.00 0.00 0.00 0.00 0.00
0.00 0.00 0.00 0.00 0.00 0.00 0.00 0.00 0.00 0.00 0.00 0.00 0.00 0.00 0.00 0.00 0.00 0.00 0.00 0.00 0.00 0.00
0.00 0.00 0.00 0.00 0.00 0.00 0.00 0.00 0.00 0.00 0.00 0.00 0.00 0.00 0.00 0.00 0.00 0.00 0.00 0.00 0.00 0.00
0.00 0.00 0.00 0.00 0.00 0.00 0.00 0.00 0.00 0.00 0.00 0.00 0.00 0.00 0.00 0.00 0.00 0.00 0.00 0.00 0.00 0.00
0.00 0.00 0.00 0.00 0.00 0.00 0.00 0.00 0.00 0.00 0.00 0.00 0.00 0.00 0.00 0.00 0.00 0.00 0.00 0.00 0.00 0.00
0.00 0.00 0.00 0.00 0.00 0.00 0.00 0.00 0.00 0.00 0.00 0.00 0.00 0.00 0.00 0.00 0.00 0.00 0.00 0.00 0.00 0.00
MSLP
1021.85 1021.75 1021.60 1021.55 1021.62 1021.65 1021.52 1021.36 1021.49 1021.64 1021.75 1021.91 1022.09 1022.11 1022.16 1022.12 1021.99 1021.92 1021.84 1021.77 1021.74 1021.71
1021.29 1021.13 1020.96 1020.81 1020.96 1020.98 1020.90 1020.83 1021.01 1021.20 1021.38 1021.56 1021.72 1021.73 1021.75 1021.74 1021.70 1021.71 1021.69 1021.66 1021.68 1021.68
1020.90 1020.65 1020.33 1020.25 1020.14 1020.18 1020.13 1020.22 1020.36 1020.48 1020.61 1020.81 1020.97 1021.07 1021.20 1021.24 1021.27 1021.37 1021.38 1021.43 1021.53 1021.65
1020.54 1020.25 1019.98 1019.83 1019.67 1019.56 1019.55 1019.60 1019.75 1019.82 1020.06 1020.28 1020.41 1020.56 1020.75 1020.82 1020.92 1020.99 1020.95 1021.00 1021.07 1021.17
1020.30 1019.90 1019.54 1019.37 1019.13 1019.04 1018.97 1018.99 1019.11 1019.35 1019.61 1019.78 1019.91 1020.12 1020.30 1020.37 1020.39 1020.47 1020.50 1020.58 1020.70 1020.69
1020.30 1019.80 1019.46 1019.16 1018.76 1018.69 1018.70 1018.77 1018.98 1019.15 1019.23 1019.27 1019.32 1019.48 1019.68 1019.87 1020.00 1020.07 1020.06 1020.18 1020.39 1020.38
1020.41 1020.08 1019.52 1018.98 1018.76 1018.65 1018.57 1018.63 1018.68 1018.67 1018.67 1018.70 1018.75 1018.87 1019.01 1019.15 1019.28 1019.44 1019.53 1019.61 1019.82 1019.97
1020.45 1019.98 1019.53 1019.17 1018.92 1018.69 1018.59 1018.58 1018.49 1018.37 1018.27 1018.18 1018.16 1018.05 1018.18 1018.39 1018.50 1018.66 1018.83 1019.05 1019.23 1019.34
1020.26 1019.95 1019.62 1019.23 1018.94 1018.71 1018.46 1018.24 1018.05 1017.88 1017.75 1017.62 1017.44 1017.27 1017.35 1017.60 1017.69 1017.83 1018.06 1018.23 1018.49 1018.70
1020.31 1019.95 1019.70 1019.52 1019.22 1018.87 1018.46 1018.20 1017.94 1017.65 1017.49 1017.15 1016.80 1016.68 1016.62 1016.65 1016.92 1017.10 1017.35 1017.64 1017.93 1018.24
1020.21 1020.00 1019.86 1019.65 1019.26 1018.92 1018.62 1018.27 1017.97 1017.52 1017.13 1016.81 1016.28 1016.11 1015.98 1015.91 1016.07 1016.33 1016.63 1016.97 1017.30 1017.59
1020.40 1020.25 1020.09 1019.70 1019.31 1018.93 1018.52 1018.10 1017.74 1017.36 1016.93 1016.60 1016.03 1015.74 1015.52 1015.43 1015.43 1015.72 1016.04 1016.45 1016.82 1017.18
1020.29 1020.13 1019.74 1019.41 1019.05 1018.80 1018.51 1018.05 1017.55 1016.99 1016.62 1016.13 1015.75 1015.43 1015.20 1015.02 1015.06 1015.34 1015.61 1016.08 1016.41 1016.68
1019.95 1019.81 1019.46 1019.24 1018.94 1018.72 1018.26 1017.74 1017.21 1016.77 1016.21 1015.88 1015.57 1015.16 1014.95 1014.69 1014.65 1014.77 1015.25 1015.73 1016.18 1016.51
Thickness
5595 5594 5593 5591 5587 5583 5581 5579 5575 5570 5567 5563 5558 5555 5551 5548 5546 5542 5540 5536 5532 5528
5591 5590 5589 5588 5583 5579 5576 5573 5569 5564 5560 5555 5551 5547 5543 5539 5536 5532 5529 5525 5520 5516
5584 5585 5585 5583 5580 5576 5573 5568 5563 5559 5554 5549 5545 5540 5536 5531 5527 5522 5518 5513 5507 5502
5578 5577 5577 5575 5573 5571 5567 5562 5557 5553 5547 5542 5537 5532 5527 5522 5517 5512 5508 5502 5496 5490
5569 5570 5570 5568 5567 5564 5560 5555 5549 5544 5538 5533 5528 5521 5516 5510 5506 5500 5495 5489 5483 5478
5557 5558 5558 5557 5557 5553 5549 5544 5538 5533 5528 5523 5518 5512 5505 5498 5492 5486 5481 5475 5468 5464
5543 5544 5545 5546 5544 5541 5537 5532 5527 5522 5518 5512 5506 5500 5493 5487 5481 5474 5468 5463 5455 5448
5531 5532 5532 5531 5529 5526 5522 5516 5512 5508 5504 5499 5494 5490 5484 5477 5471 5464 5457 5450 5442 5436
5519 5518 5517 5515 5513 5509 5506 5503 5499 5495 5492 5487 5483 5479 5474 5467 5461 5454 5447 5439 5431 5423
5503 5501 5499 5495 5492 5491 5489 5486 5484 5481 5478 5476 5472 5468 5464 5459 5451 5443 5435 5426 5418 5410
5487 5484 5480 5477 5476 5475 5472 5471 5468 5466 5465 5463 5460 5457 5453 5449 5444 5433 5424 5415 5407 5398
5470 5466 5463 5462 5461 5459 5458 5456 5454 5452 5451 5449 5447 5444 5441 5436 5432 5423 5412 5403 5394 5384
5456 5453 5451 5449 5448 5445 5443 5441 5441 5439 5437 5436 5434 5429 5426 5423 5418 5409 5401 5390 5381 5373
5441 5437 5437 5434 5431 5429 5428 5427 5426 5425 5424 5423 5420 5416 5413 5410 5406 5397 5387 5377 5366 5358